Flag for Macedonia, Republic of Weather past 2 weeks in Skopje, Macedonia, Republic of

Now
54 °F

Scattered clouds.


Feels Like: 54 °F
Forecast: 39 / 62 °F
Wind: 2 mph from North

Location: Skopje-Petrovec

Current Time: Apr 19, 2015 at 3:16:55 PM

Latest Report: Apr 19, 2015 at 3:00 PM


Visibility: N/A

Pressure: 30.09 "Hg

Humidity: 47%

Dew point: 34 °F

Location of SkopjeLocation

Historic Weather in Skopje — Graph

°F

Skopje temperature yesterday

Maximum temperature yesterday: 75 °F (at 2:30 PM)
Minimum temperature yesterday: 45 °F (at 6:00 AM)
Average temperature yesterday: 59 °F

Past Weeks' High & Low Weather Summary

 TemperatureHumidityPressure
High77 °F (Apr 16, 4:30 PM)100% (Apr 5, 11:00 PM)30.45 "Hg (Apr 5, 11:00 PM)
Low34 °F (Apr 11, 3:30 AM)16% (Apr 11, 4:00 PM)29.77 "Hg (Apr 18, 3:30 PM)
Average51 °F60%30.12 "Hg
* Reported Apr 4 2:00 PM — Apr 19 2:00 PM, Skopje, Weather by CustomWeather, © 2015

Note: Actual official high and low records may vary slightly from our data, if they occured in-between our weather recording intervals... More about our weather records

Advertising

Skopje weather history for previous 24 hours

 ConditionsComfort  
Time TempWeatherWind HumidityBarometerVisibility
2:00 PM
Sun, Apr 19
50 °FMore clouds than sun.6 mph54%30.12 "HgN/A
1:30 PM50 °FMore clouds than sun.6 mph54%30.12 "HgN/A
1:00 PM50 °FMore clouds than sun.6 mph54%30.12 "HgN/A
12:30 PM50 °FMore clouds than sun.9 mph54%30.12 "HgN/A
12:00 PM50 °FMore clouds than sun.13 mph54%30.12 "HgN/A
11:30 AM50 °FMore clouds than sun.14 mph54%30.15 "HgN/A
11:00 AM50 °FMore clouds than sun.14 mph54%30.15 "HgN/A
10:30 AM48 °FMore clouds than sun.10 mph62%30.12 "HgN/A
10:00 AM48 °FMore clouds than sun.9 mph62%30.12 "HgN/A
9:30 AM46 °FMore clouds than sun.6 mph71%30.12 "HgN/A
9:00 AM46 °FMore clouds than sun.3 mph71%30.12 "HgN/A
8:30 AM46 °FMore clouds than sun.6 mph71%30.12 "HgN/A
8:00 AM45 °FMore clouds than sun.6 mph76%30.12 "HgN/A
7:30 AM45 °FMore clouds than sun.3 mph76%30.09 "HgN/A
7:00 AM45 °FMore clouds than sun.5 mph71%30.09 "HgN/A
6:30 AM46 °FMostly cloudy.13 mph66%30.09 "HgN/A
6:00 AM46 °FMostly cloudy.12 mph62%30.09 "HgN/A
5:30 AM46 °FOvercast.17 mph62%30.07 "HgN/A
5:00 AM46 °FOvercast.20 mph62%30.07 "HgN/A
4:30 AM46 °FOvercast.16 mph66%30.04 "HgN/A
4:00 AM48 °FPassing clouds.21 mph62%30.04 "HgN/A
3:30 AM48 °FPassing clouds.18 mph62%30.04 "HgN/A
2:30 AM48 °FPassing clouds.14 mph62%30.07 "HgN/A
2:00 AM48 °FPassing clouds.23 mph62%30.04 "HgN/A
1:30 AM48 °FPassing clouds.18 mph62%30.04 "HgN/A
1:00 AM50 °FPassing clouds.16 mph58%30.04 "HgN/A
12:30 AM50 °FPassing clouds.15 mph62%30.04 "HgN/A
12:00 AM50 °FPassing clouds.20 mph62%30.04 "HgN/A
11:30 PM
Sat, Apr 18
52 °FPassing clouds.20 mph58%30.01 "HgN/A
11:00 PM52 °FPassing clouds.18 mph58%30.01 "HgN/A
10:30 PM52 °FPartly cloudy.20 mph62%29.98 "HgN/A
10:00 PM52 °FPassing clouds.23 mph62%29.98 "HgN/A
9:30 PM52 °FPassing clouds.17 mph67%29.98 "HgN/A
9:00 PM52 °FPassing clouds.21 mph67%29.95 "HgN/A
8:30 PM54 °FPassing clouds.21 mph67%29.95 "HgN/A
8:00 PM55 °FPassing clouds.23 mph63%29.89 "HgN/A
7:30 PM55 °FScattered clouds.20 mph67%29.89 "HgN/A
7:00 PM59 °FScattered clouds.23 mph63%29.86 "HgN/A
6:30 PM61 °FScattered clouds.28 mph59%29.83 "HgN/A
6:00 PM66 °FScattered clouds.24 mph52%29.83 "HgN/A
5:30 PM72 °FScattered clouds.13 mph36%29.80 "HgN/A
5:00 PM72 °FScattered clouds.12 mph36%29.80 "HgN/A
4:30 PM75 °FScattered clouds.3 mph31%29.77 "HgN/A
4:00 PM73 °FScattered clouds.3 mph33%29.77 "HgN/A
3:30 PM73 °FScattered clouds.5 mph36%29.77 "HgN/A
3:00 PM73 °FScattered clouds.3 mph33%29.80 "HgN/A
Weather by CustomWeather, © 2015

See weather overviewHow to use our weather pages